Вернуться в каталог

FENGYUN 1C DEB

АктивенSSO
NORAD 29788·DEBRIS·🇨🇳 China

Запущен May 10, 1999 с Taiyuan Satellite Launch Center

Loading…

Ближайшие Пролёты (ближайшие 24 часа)

TLE

СвежийSource: Space-Track

Эпоха: Sep 14, 2026, 03:29 UTC

1 29788U 99025CE  26257.14552212  .00002149  00000-0  88089-3 0  9995
2 29788  98.7681 334.5609 0042339 109.9674 279.1159 14.27703756 12843

Отслеживайте FENGYUN 1C DEB в реальном времени с AllMySat

Download on the App Store